Frankfort, MI

9:53 AM EST on February 19, 2017 (GMT -0500)
Frankfort

Weather History for KFKS - August, 2013

Change the Weather History Date:

Monday, August 26, 2013

  Actual Average (KMBL) Record (KMBL)
Temperature  
Mean Temperature 75 °F -  
Max Temperature 82 °F 78 °F 94 °F (1948)
Min Temperature 68 °F 59 °F 46 °F (2008)
Cooling Degree Days 10    
Growing Degree Days 25 (Base 50)    
Moisture  
Dew Point 67 °F    
Average Humidity 77    
Maximum Humidity 92    
Minimum Humidity 58    
Precipitation  
Precipitation 0.00 in - - ()
Sea Level Pressure  
Sea Level Pressure 30.01 in    
Wind  
Wind Speed 6 mph (SW)    
Max Wind Speed 15 mph    
Max Gust Speed 24 mph    
Visibility 9 miles    
Events Rain    
Averages and records for this station are not official NWS values.
T = Trace of Precipitation, MM = Missing Value Source: NWS Daily Summary

Daily Weather History Graph

Daily Weather History Graph

Search for Another Location

Airport or City:

Trip Planner

Search our weather history database for the weather conditions in past years. The results will help you decide how hot, cold, wet, or windy it might be!

Date:

Astronomy

Aug. 26, 2013 Rise Set
Actual Time 7:00 AM EDT 8:31 PM EDT
Civil Twilight 6:29 AM EDT 9:02 PM EDT
Nautical Twilight 5:52 AM EDT 9:38 PM EDT
Astronomical Twilight 5:13 AM EDT 10:18 PM EDT
Moon 11:24 PM EDT (8/26) 1:18 PM EDT (8/26)
Length of Visible Light 14h 32m
Length of Day
13h 31m
Waning Gibbous, 67% of the Moon is Illuminated
Aug 26
Waning Gibbous
Aug 28
Last Quarter
Sep 5
New
Sep 12
First Quarter
Sep 19
Full

Hourly Weather History & Observations

Time (EDT) Temp. Heat Index Dew Point Humidity Pressure Visibility Wind Dir Wind Speed Gust Speed Precip Events Conditions
12:12 AM 76.8 °F - 65.7 °F 68% 30.05 in 10.0 mi SW 8.1 mph - N/A   Clear
12:32 AM 76.5 °F - 65.7 °F 69% 30.05 in 10.0 mi SW 6.9 mph 18.4 mph N/A   Clear
12:52 AM 77.2 °F - 65.3 °F 67% 30.04 in 10.0 mi SW 10.4 mph 21.9 mph N/A   Clear
1:12 AM 76.8 °F - 65.5 °F 68% 30.03 in 10.0 mi SSW 12.7 mph 18.4 mph N/A   Clear
1:32 AM 76.3 °F - 65.8 °F 70% 30.03 in 10.0 mi SSW 9.2 mph 17.3 mph N/A   Clear
1:52 AM 76.5 °F - 66.2 °F 70% 30.03 in 10.0 mi SSW 9.2 mph 21.9 mph N/A   Clear
2:12 AM 75.4 °F - 67.3 °F 76% 30.04 in 10.0 mi SSW 8.1 mph 19.6 mph N/A   Clear
2:32 AM 75.0 °F - 67.5 °F 77% 30.04 in 10.0 mi SSW 9.2 mph - N/A   Clear
2:53 AM 74.8 °F - 67.8 °F 79% 30.04 in 10.0 mi SW 6.9 mph - N/A   Clear
3:13 AM 74.3 °F - 67.8 °F 80% 30.04 in 10.0 mi SSW 6.9 mph - N/A   Clear
3:33 AM 73.9 °F - 68.0 °F 82% 30.04 in 10.0 mi South 5.8 mph - N/A   Clear
3:53 AM 74.1 °F - 67.6 °F 80% 30.03 in 10.0 mi South 9.2 mph - N/A   Clear
4:13 AM 74.3 °F - 67.6 °F 80% 30.03 in 10.0 mi SSW 9.2 mph - N/A   Clear
4:33 AM 74.3 °F - 67.5 °F 79% 30.04 in 10.0 mi SW 4.6 mph - N/A   Clear
4:53 AM 73.9 °F - 67.5 °F 80% 30.04 in 10.0 mi SSW 5.8 mph - N/A   Clear
5:13 AM 74.1 °F - 67.3 °F 79% 30.04 in 10.0 mi SSW 4.6 mph - N/A   Mostly Cloudy
5:34 AM 74.3 °F - 67.3 °F 79% 30.03 in 10.0 mi SSW 9.2 mph - N/A   Overcast
5:54 AM 74.3 °F - 67.1 °F 78% 30.03 in 10.0 mi SSW 5.8 mph - N/A   Mostly Cloudy
6:14 AM 74.3 °F - 66.7 °F 77% 30.03 in 10.0 mi SSW 8.1 mph - N/A   Mostly Cloudy
6:34 AM 73.8 °F - 67.1 °F 80% 30.06 in 10.0 mi WSW 6.9 mph - N/A   Overcast
6:54 AM 72.9 °F - 67.1 °F 82% 30.05 in 10.0 mi SW 5.8 mph - N/A   Mostly Cloudy
7:14 AM 73.4 °F - 66.7 °F 80% 30.05 in 10.0 mi SSW 4.6 mph - N/A   Overcast
7:34 AM 73.4 °F - 66.9 °F 80% 30.04 in 10.0 mi South 6.9 mph - N/A   Overcast
7:54 AM 72.1 °F - 67.5 °F 85% 30.08 in 4.0 mi WSW 3.5 mph - N/A Rain Heavy Rain
8:14 AM 70.7 °F - 67.6 °F 90% 30.07 in 4.0 mi Calm Calm - N/A Rain Light Rain
8:35 AM 70.9 °F - 68.0 °F 91% 30.07 in 5.0 mi South 3.5 mph - N/A   Light Drizzle
8:55 AM 70.7 °F - 68.2 °F 92% 30.07 in 5.0 mi SSW 3.5 mph - N/A   Overcast
9:15 AM 70.9 °F - 68.2 °F 91% 30.06 in 5.0 mi South 4.6 mph - N/A   Scattered Clouds
9:35 AM 71.1 °F - 67.8 °F 89% 30.06 in 7.0 mi SSW 3.5 mph - N/A   Clear
9:55 AM 70.9 °F - 67.5 °F 89% 30.07 in 7.0 mi SW 6.9 mph - N/A Rain Light Rain
10:15 AM 70.7 °F - 67.3 °F 89% 30.02 in 7.0 mi SSW 15.0 mph 24.2 mph N/A Rain Light Rain
10:35 AM 70.7 °F - 67.1 °F 88% 30.00 in 7.0 mi SSW 11.5 mph 17.3 mph N/A Rain Light Rain
10:55 AM 71.6 °F - 67.3 °F 86% 29.97 in 7.0 mi SSW 8.1 mph - N/A Rain Light Rain
11:15 AM 72.9 °F - 67.5 °F 83% 29.99 in 10.0 mi SSW 8.1 mph 18.4 mph N/A   Clear
11:36 AM 74.5 °F - 67.6 °F 79% 30.02 in 10.0 mi Calm Calm - N/A   Clear
11:56 AM 75.6 °F - 67.8 °F 77% 30.03 in 10.0 mi SW 8.1 mph 16.1 mph N/A   Clear
12:16 PM 77.0 °F - 68.4 °F 75% 30.03 in 10.0 mi South 9.2 mph - N/A   Clear
12:36 PM 76.8 °F - 68.0 °F 74% 30.03 in 10.0 mi SSW 6.9 mph - N/A   Clear
12:56 PM 77.5 °F - 67.8 °F 72% 30.02 in 10.0 mi SW 3.5 mph - N/A   Clear
1:16 PM 79.3 °F - 67.5 °F 67% 30.01 in 10.0 mi Calm Calm - N/A   Clear
1:31 PM 80.8 °F 83.2 °F 66.9 °F 63% 30.01 in 10.0 mi SW 10.4 mph - N/A   Clear
1:51 PM 80.1 °F 82.2 °F 66.4 °F 63% 30.00 in 10.0 mi SW 3.5 mph - N/A   Clear
2:11 PM 81.0 °F 82.9 °F 65.5 °F 59% 29.99 in 10.0 mi Calm Calm - N/A   Clear
2:32 PM 82.6 °F 84.9 °F 66.2 °F 58% 29.99 in 10.0 mi WSW 5.8 mph - N/A   Clear
2:52 PM 80.4 °F 82.3 °F 65.5 °F 60% 29.99 in 10.0 mi WSW 6.9 mph - N/A   Clear
3:12 PM 80.1 °F 82.2 °F 66.6 °F 63% 30.00 in 10.0 mi WSW 5.8 mph - N/A   Clear
3:32 PM 80.2 °F 82.6 °F 66.9 °F 64% 30.00 in 10.0 mi West 9.2 mph - N/A   Clear
3:52 PM 79.7 °F - 66.4 °F 64% 30.00 in 10.0 mi WNW 4.6 mph - N/A   Clear
4:12 PM 79.2 °F - 65.7 °F 63% 29.99 in 10.0 mi West 5.8 mph - N/A   Clear
4:32 PM 79.5 °F - 65.8 °F 63% 29.99 in 10.0 mi West 8.1 mph - N/A   Clear
4:52 PM 79.7 °F - 66.0 °F 63% 30.00 in 10.0 mi WSW 4.6 mph - N/A   Clear
5:13 PM 78.4 °F - 66.0 °F 66% 29.99 in 10.0 mi West 6.9 mph - N/A   Clear
5:33 PM 78.6 °F - 66.2 °F 66% 29.99 in 10.0 mi SW 5.8 mph - N/A   Clear
5:53 PM 77.9 °F - 65.3 °F 65% 29.99 in 10.0 mi SW 5.8 mph - N/A   Clear
6:13 PM 78.4 °F - 66.0 °F 66% 29.99 in 10.0 mi SW 3.5 mph - N/A   Clear
6:33 PM 76.1 °F - 65.5 °F 70% 29.99 in 10.0 mi Calm Calm - N/A   Clear
6:53 PM 75.9 °F - 66.0 °F 71% 29.99 in 10.0 mi SW 3.5 mph - N/A   Scattered Clouds
7:13 PM 76.1 °F - 66.2 °F 71% 29.98 in 10.0 mi Calm Calm - N/A   Clear
7:33 PM 76.1 °F - 66.2 °F 71% 29.98 in 10.0 mi Calm Calm - N/A   Clear
7:53 PM 75.4 °F - 66.4 °F 73% 29.97 in 10.0 mi Calm Calm - N/A   Clear
8:13 PM 73.2 °F - 66.9 °F 81% 29.96 in 10.0 mi Calm Calm - N/A   Clear
8:34 PM 72.3 °F - 66.7 °F 83% 29.96 in 10.0 mi Calm Calm - N/A   Clear
8:54 PM 71.4 °F - 66.7 °F 85% 29.96 in 10.0 mi Calm Calm - N/A   Clear
9:14 PM 70.3 °F - 66.4 °F 87% 29.96 in 10.0 mi Calm Calm - N/A   Clear
9:36 PM 69.6 °F - 65.8 °F 88% 29.96 in 10.0 mi Calm Calm - N/A   Clear
9:51 PM 69.8 °F - 65.7 °F 87% 29.97 in 10.0 mi Calm Calm - N/A   Clear
10:11 PM 68.9 °F - 65.5 °F 89% 29.97 in 10.0 mi Calm Calm - N/A   Clear
10:32 PM 68.5 °F - 65.8 °F 91% 29.98 in 7.0 mi Calm Calm - N/A   Clear
10:52 PM 68.9 °F - 65.5 °F 89% 29.97 in 10.0 mi Calm Calm - N/A   Clear
11:12 PM 68.4 °F - 65.5 °F 90% 29.96 in 7.0 mi Calm Calm - N/A   Clear
11:32 PM 68.4 °F - 65.1 °F 89% 29.95 in 10.0 mi Calm Calm - N/A   Clear
11:52 PM 68.0 °F - 65.3 °F 91% 29.95 in 7.0 mi Calm Calm - N/A   Clear